GW1010 Weather Reports


Display with metric or nautical units.
time (UTC)temp
F
wind
direction
speed
MPH
gust
MPH
rain 1hr
in
rain 24hr
in
rain mn
in
humidity
%
barometer
mb
20260510011030 87 176 0.0 3.0 0.00 0.00 0.00 28 1011.8
20260510010527 88 205 1.0 3.0 0.00 0.00 0.00 27 1011.7
20260510010055 87 0 0.0 4.0 0.00 0.00 0.00 29 1011.7
20260510005529 86 152 2.0 4.0 0.00 0.00 0.00 29 1011.7
20260510005027 87 223 1.0 4.0 0.00 0.00 0.00 28 1011.7
20260510004541 88 214 0.0 2.0 0.00 0.00 0.00 28 1011.7
20260510004032 87 228 1.0 4.0 0.00 0.00 0.00 29 1011.6
20260510003529 87 240 1.0 4.0 0.00 0.00 0.00 31 1011.7
20260510003043 88 168 1.0 7.0 0.00 0.00 0.00 30 1011.7
20260510002528 88 136 1.0 7.0 0.00 0.00 0.00 30 1011.7
20260510002031 88 131 0.0 3.0 0.00 0.00 0.00 31 1011.7
20260510001539 88 113 1.0 4.0 0.00 0.00 0.00 32 1011.7
20260510001028 87 103 1.0 6.0 0.00 0.00 0.00 31 1011.8
20260510000528 87 145 1.0 6.0 0.00 0.00 0.00 31 1011.7
20260510000048 87 128 1.0 6.0 0.00 0.00 0.00 31 1011.7
20260509235530 88 270 2.0 7.0 0.00 0.00 0.00 29 1011.7
20260509235027 89 231 2.0 7.0 0.00 0.00 0.00 30 1011.8
20260509234541 89 210 1.0 6.0 0.00 0.00 0.00 29 1011.8
20260509234031 88 104 2.0 6.0 0.00 0.00 0.00 30 1011.8
20260509233527 89 131 2.0 5.0 0.00 0.00 0.00 30 1011.9
20260509233041 88 239 2.0 7.0 0.00 0.00 0.00 30 1011.8
20260509232529 89 96 1.0 7.0 0.00 0.00 0.00 32 1011.9
20260509232029 89 169 2.0 6.0 0.00 0.00 0.00 31 1011.9
20260509231550 89 101 1.0 7.0 0.00 0.00 0.00 32 1012.0
20260509231027 89 134 1.0 7.0 0.00 0.00 0.00 33 1012.1
20260509230527 90 188 2.0 7.0 0.00 0.00 0.00 32 1012.1
20260509230040 90 233 1.0 5.0 0.00 0.00 0.00 34 1012.1
20260509225528 90 233 1.0 5.0 0.00 0.00 0.00 33 1012.1
20260509225028 89 106 1.0 7.0 0.00 0.00 0.00 36 1012.1
20260509224542 90 252 2.0 7.0 0.00 0.00 0.00 33 1012.1
20260509224028 90 249 2.0 6.0 0.00 0.00 0.00 32 1012.1
20260509223529 90 109 2.0 6.0 0.00 0.00 0.00 32 1012.1
20260509223042 90 60 2.0 6.0 0.00 0.00 0.00 32 1012.2
20260509222531 91 240 2.0 8.0 0.00 0.00 0.00 31 1012.4
20260509222029 91 266 3.0 8.0 0.00 0.00 0.00 32 1012.5
20260509221541 92 259 3.0 7.0 0.00 0.00 0.00 30 1012.4
20260509221027 93 137 1.0 6.0 0.00 0.00 0.00 27 1012.5
20260509220527 92 245 1.0 6.0 0.00 0.00 0.00 24 1012.4
20260509220046 92 283 1.0 3.0 0.00 0.00 0.00 24 1012.5
20260509215530 91 89 1.0 3.0 0.00 0.00 0.00 22 1012.5
20260509215032 91 37 1.0 6.0 0.00 0.00 0.00 22 1012.6
20260509214543 90 236 2.0 6.0 0.00 0.00 0.00 22 1012.7
20260509214027 90 314 2.0 4.0 0.00 0.00 0.00 21 1012.7
20260509213528 90 304 2.0 5.0 0.00 0.00 0.00 18 1012.8
20260509213058 90 191 1.0 5.0 0.00 0.00 0.00 17 1012.8
20260509212527 90 314 2.0 4.0 0.00 0.00 0.00 20 1012.9
20260509212029 90 297 1.0 4.0 0.00 0.00 0.00 20 1012.9
20260509211604 91 316 1.0 7.0 0.00 0.00 0.00 23 1013.1
20260509211027 90 155 2.0 7.0 0.00 0.00 0.00 25 1013.1
20260509210527 89 293 0.0 3.0 0.00 0.00 0.00 25 1013.2
20260509210037 88 236 1.0 5.0 0.00 0.00 0.00 23 1013.2
20260509205527 89 155 1.0 5.0 0.00 0.00 0.00 23 1013.3
20260509205027 90 328 2.0 4.0 0.00 0.00 0.00 24 1013.4
20260509204557 90 134 0.0 3.0 0.00 0.00 0.00 24 1013.4
20260509204032 89 205 0.0 3.0 0.00 0.00 0.00 25 1013.5
20260509203527 88 240 1.0 3.0 0.00 0.00 0.00 27 1013.5
20260509203052 87 0 0.0 3.0 0.00 0.00 0.00 27 1013.6
20260509202527 87 41 1.0 3.0 0.00 0.00 0.00 29 1013.7
20260509202028 86 80 0.0 4.0 0.00 0.00 0.00 31 1013.7
20260509201544 86 326 1.0 4.0 0.00 0.00 0.00 29 1013.7
20260509201028 86 327 2.0 5.0 0.00 0.00 0.00 31 1013.8
20260509200527 86 242 1.0 5.0 0.00 0.00 0.00 30 1013.9
20260509200042 86 0 0.0 5.0 0.00 0.00 0.00 33 1014.0
20260509195528 85 315 0.0 5.0 0.00 0.00 0.00 34 1014.0
20260509195030 84 354 1.0 5.0 0.00 0.00 0.00 36 1014.1
20260509194546 84 277 0.0 4.0 0.00 0.00 0.00 38 1014.2
20260509194028 83 313 0.0 4.0 0.00 0.00 0.00 38 1014.4
20260509193530 83 226 1.0 5.0 0.00 0.00 0.00 37 1014.4
20260509193045 82 0 1.0 5.0 0.00 0.00 0.00 41 1014.4
20260509192527 82 330 2.0 5.0 0.00 0.00 0.00 39 1014.5
20260509192027 82 309 0.0 3.0 0.00 0.00 0.00 41 1014.6
20260509191544 82 0 0.0 3.0 0.00 0.00 0.00 41 1014.6
20260509191030 81 233 1.0 4.0 0.00 0.00 0.00 43 1014.7
20260509190527 80 226 1.0 4.0 0.00 0.00 0.00 45 1014.9
20260509190048 79 0 0.0 5.0 0.00 0.00 0.00 44 1015.0
20260509185529 78 315 2.0 5.0 0.00 0.00 0.00 44 1015.1
20260509185029 78 0 1.0 4.0 0.00 0.00 0.00 45 1015.1
20260509184538 78 85 1.0 3.0 0.00 0.00 0.00 45 1015.2
20260509184027 77 238 0.0 2.0 0.00 0.00 0.00 48 1015.3
20260509183533 76 0 0.0 2.0 0.00 0.00 0.00 48 1015.3
20260509183044 75 228 0.0 3.0 0.00 0.00 0.00 53 1015.3
20260509182527 74 0 0.0 3.0 0.00 0.00 0.00 51 1015.4
20260509182027 73 318 1.0 3.0 0.00 0.00 0.00 54 1015.4
20260509181545 72 0 0.0 3.0 0.00 0.00 0.00 57 1015.5
20260509181028 71 246 1.0 3.0 0.00 0.00 0.00 57 1015.5
20260509180528 70 300 1.0 3.0 0.00 0.00 0.00 57 1015.6
20260509180042 70 0 0.0 4.0 0.00 0.00 0.00 59 1015.6
20260509175527 69 307 0.0 4.0 0.00 0.00 0.00 61 1015.7
20260509175027 69 315 1.0 3.0 0.00 0.00 0.00 60 1015.8
20260509174547 68 295 1.0 2.0 0.00 0.00 0.00 62 1015.9
20260509174030 67 347 1.0 4.0 0.00 0.00 0.00 65 1015.9
20260509173527 67 231 1.0 4.0 0.00 0.00 0.00 67 1015.9
20260509173041 66 0 1.0 4.0 0.00 0.00 0.00 66 1016.0
20260509172530 66 250 1.0 2.0 0.00 0.00 0.00 67 1016.0
20260509172030 65 232 0.0 2.0 0.00 0.00 0.00 67 1016.1
20260509171536 65 187 0.0 2.0 0.00 0.00 0.00 69 1016.0
20260509171027 64 188 0.0 2.0 0.00 0.00 0.00 71 1016.1
20260509170528 63 187 0.0 2.0 0.00 0.00 0.00 73 1016.1
20260509170045 63 186 0.0 2.0 0.00 0.00 0.00 74 1016.2
20260509165527 61 188 0.0 3.0 0.00 0.00 0.00 76 1016.2
20260509165028 61 0 1.0 3.0 0.00 0.00 0.00 76 1016.2
20260509164544 61 188 0.0 2.0 0.00 0.00 0.00 78 1016.3
20260509164027 60 0 0.0 2.0 0.00 0.00 0.00 80 1016.4
20260509163527 58 0 0.0 4.0 0.00 0.00 0.00 82 1016.4
20260509163054 58 0 0.0 4.0 0.00 0.00 0.00 82 1016.5
20260509162527 57 188 1.0 4.0 0.00 0.00 0.00 83 1016.5
20260509162028 57 0 0.0 2.0 0.00 0.00 0.00 82 1016.5
20260509161542 58 191 0.0 3.0 0.00 0.00 0.00 84 1016.6
20260509161031 56 0 0.0 4.0 0.00 0.00 0.00 86 1016.6
20260509160527 56 0 1.0 4.0 0.00 0.00 0.00 88 1016.7
20260509160038 55 0 0.0 1.0 0.00 0.00 0.00 89 1016.7
20260509155527 54 0 0.0 1.0 0.00 0.00 0.00 89 1016.7
20260509155031 54 0 0.0 0.0 0.00 0.00 0.00 89 1016.8
20260509154542 54 0 0.0 0.0 0.00 0.00 0.00 90 1016.8
20260509154031 54 0 0.0 1.0 0.00 0.00 0.00 90 1016.7
20260509153528 53 0 0.0 1.0 0.00 0.00 0.00 91 1016.8
20260509153041 53 0 0.0 1.0 0.00 0.00 0.00 92 1016.8
20260509152529 53 0 0.0 1.0 0.00 0.00 0.00 92 1016.8
20260509152028 53 0 0.0 1.0 0.00 0.00 0.00 93 1016.7
20260509151544 52 0 0.0 1.0 0.00 0.00 0.00 93 1016.7
20260509151027 52 0 0.0 1.0 0.00 0.00 0.00 94 1016.7
20260509150531 52 0 0.0 1.0 0.00 0.00 0.00 94 1016.8
20260509150042 52 0 0.0 0.0 0.00 0.00 0.00 94 1016.8
20260509145527 52 0 0.0 0.0 0.00 0.00 0.00 94 1016.8
20260509145027 52 0 0.0 0.0 0.00 0.00 0.00 95 1016.8
20260509144536 51 0 0.0 0.0 0.00 0.00 0.00 94 1016.7
20260509144027 51 0 0.0 0.0 0.00 0.00 0.00 94 1016.8
20260509143528 51 0 0.0 0.0 0.00 0.00 0.00 95 1016.7
20260509143051 51 0 0.0 0.0 0.00 0.00 0.00 95 1016.7
20260509142527 51 0 0.0 0.0 0.00 0.00 0.00 95 1016.7
20260509142028 51 0 0.0 0.0 0.00 0.00 0.00 95 1016.7
20260509141545 51 0 0.0 0.0 0.00 0.00 0.00 94 1016.7
20260509141027 51 0 0.0 0.0 0.00 0.00 0.00 94 1016.8
20260509140527 51 0 0.0 0.0 0.00 0.00 0.00 95 1016.7
20260509140047 51 0 0.0 0.0 0.00 0.00 0.00 95 1016.7
20260509135530 51 0 0.0 0.0 0.00 0.00 0.00 95 1016.7
20260509135029 51 0 0.0 0.0 0.00 0.00 0.00 95 1016.6
20260509134548 50 0 0.0 0.0 0.00 0.00 0.00 95 1016.6
20260509134028 50 0 0.0 0.0 0.00 0.00 0.00 94 1016.6
20260509133528 50 0 0.0 1.0 0.00 0.00 0.00 94 1016.6
20260509133054 50 0 0.0 1.0 0.00 0.00 0.00 94 1016.6
20260509132528 50 0 0.0 0.0 0.00 0.00 0.00 94 1016.6
20260509132028 50 0 0.0 0.0 0.00 0.00 0.00 94 1016.6
20260509131544 50 0 0.0 0.0 0.00 0.00 0.00 94 1016.5
20260509131029 50 0 0.0 0.0 0.00 0.00 0.00 94 1016.3
20260509130529 50 0 0.0 0.0 0.00 0.00 0.00 94 1016.2
20260509130044 50 0 0.0 0.0 0.00 0.00 0.00 94 1016.2
20260509125528 50 0 0.0 0.0 0.00 0.00 0.00 94 1016.2
20260509125028 50 0 0.0 0.0 0.00 0.00 0.00 94 1016.2
20260509124539 50 0 0.0 0.0 0.00 0.00 0.00 94 1016.2
20260509124027 50 0 0.0 0.0 0.00 0.00 0.00 94 1016.1
20260509123527 50 0 0.0 0.0 0.00 0.00 0.00 94 1016.2
20260509123046 50 0 0.0 0.0 0.00 0.00 0.00 94 1016.2
20260509122528 50 0 0.0 0.0 0.00 0.00 0.00 94 1016.1
20260509122028 50 0 0.0 0.0 0.00 0.00 0.00 94 1016.2
20260509121540 50 0 0.0 0.0 0.00 0.00 0.00 94 1016.2
20260509121030 50 0 0.0 0.0 0.00 0.00 0.00 94 1016.3
20260509120528 50 0 0.0 1.0 0.00 0.00 0.00 94 1016.2
20260509120044 50 0 0.0 1.0 0.00 0.00 0.00 94 1016.4
20260509115527 50 0 0.0 1.0 0.00 0.00 0.00 94 1016.2
20260509115027 50 0 0.0 2.0 0.00 0.00 0.00 94 1016.3
20260509114553 50 0 0.0 2.0 0.00 0.00 0.00 94 1016.4
20260509114032 50 0 0.0 2.0 0.00 0.00 0.00 94 1016.3
20260509113528 50 0 0.0 0.0 0.00 0.00 0.00 94 1016.2
20260509113045 50 0 0.0 0.0 0.00 0.00 0.00 94 1016.3
20260509112527 50 0 0.0 2.0 0.00 0.00 0.00 94 1016.3
20260509112027 50 0 0.0 2.0 0.00 0.00 0.00 94 1016.3
20260509111543 50 0 0.0 1.0 0.00 0.00 0.00 94 1016.4
20260509111027 50 0 0.0 1.0 0.00 0.00 0.00 94 1016.4
20260509110527 50 0 0.0 0.0 0.00 0.00 0.00 94 1016.4
20260509110053 49 0 0.0 0.0 0.00 0.00 0.00 93 1016.5
20260509105531 49 0 0.0 2.0 0.00 0.00 0.00 93 1016.4
20260509105027 49 0 0.0 2.0 0.00 0.00 0.00 93 1016.5
20260509104543 49 179 0.0 2.0 0.00 0.00 0.00 93 1016.5
20260509104027 49 0 0.0 0.0 0.00 0.00 0.00 92 1016.5
20260509103528 49 0 0.0 0.0 0.00 0.00 0.00 92 1016.6
20260509103043 49 0 0.0 0.0 0.00 0.00 0.00 92 1016.4
20260509102527 49 0 0.0 0.0 0.00 0.00 0.00 93 1016.5
20260509102028 49 0 0.0 0.0 0.00 0.00 0.00 92 1016.6
20260509101541 49 0 0.0 0.0 0.00 0.00 0.00 92 1016.4
20260509101027 49 0 0.0 0.0 0.00 0.00 0.00 91 1016.5
20260509100527 49 0 0.0 0.0 0.00 0.00 0.00 91 1016.5
20260509100100 50 0 0.0 0.0 0.00 0.00 0.00 90 1016.5
20260509095527 50 0 0.0 0.0 0.00 0.00 0.00 90 1016.3
20260509095027 50 0 0.0 0.0 0.00 0.00 0.00 90 1016.2
20260509094539 50 0 0.0 0.0 0.00 0.00 0.00 91 1016.2
20260509094027 50 0 0.0 0.0 0.00 0.00 0.00 91 1016.2
20260509093528 50 0 0.0 0.0 0.00 0.00 0.00 91 1016.3
20260509093045 50 0 0.0 0.0 0.00 0.00 0.00 90 1016.2
20260509092527 50 0 0.0 0.0 0.00 0.00 0.00 89 1016.2
20260509092028 50 0 0.0 0.0 0.00 0.00 0.00 89 1016.2
20260509091540 51 0 0.0 0.0 0.00 0.00 0.00 88 1016.2
20260509091028 51 0 0.0 0.0 0.00 0.00 0.00 87 1016.1
20260509090527 52 0 0.0 0.0 0.00 0.00 0.00 87 1016.2
20260509090045 52 0 0.0 0.0 0.00 0.00 0.00 87 1016.2
20260509085528 52 0 0.0 0.0 0.00 0.00 0.00 87 1016.1
20260509085028 53 0 0.0 0.0 0.00 0.00 0.00 87 1016.2
20260509084547 53 0 0.0 0.0 0.00 0.00 0.00 86 1016.1
20260509084028 53 0 0.0 0.0 0.00 0.00 0.00 85 1016.1
20260509083531 53 0 0.0 0.0 0.00 0.00 0.00 84 1016.2
20260509083043 54 0 0.0 0.0 0.00 0.00 0.00 84 1016.2
20260509082528 54 0 0.0 0.0 0.00 0.00 0.00 84 1016.3
20260509082028 54 0 0.0 0.0 0.00 0.00 0.00 84 1016.4
20260509081543 54 0 0.0 0.0 0.00 0.00 0.00 84 1016.3
20260509081028 54 0 0.0 0.0 0.00 0.00 0.00 83 1016.3
20260509080528 54 0 0.0 0.0 0.00 0.00 0.00 82 1016.3
20260509080120 55 0 0.0 0.0 0.00 0.00 0.00 81 1016.2
20260509075529 55 0 0.0 0.0 0.00 0.00 0.00 81 1016.3
20260509075030 55 0 0.0 0.0 0.00 0.00 0.00 80 1016.3
20260509074547 56 0 0.0 0.0 0.00 0.00 0.00 80 1016.4
20260509074028 56 0 0.0 0.0 0.00 0.00 0.00 79 1016.2
20260509073528 56 0 0.0 0.0 0.00 0.00 0.00 79 1016.2
20260509073128 56 0 0.0 0.0 0.00 0.00 0.00 80 1016.2
20260509072527 56 0 0.0 0.0 0.00 0.00 0.00 79 1016.3
20260509072027 57 0 0.0 0.0 0.00 0.00 0.00 78 1016.3
20260509071549 57 0 0.0 0.0 0.00 0.00 0.00 78 1016.1
20260509071028 57 0 0.0 0.0 0.00 0.00 0.00 78 1016.2
20260509070527 57 0 0.0 0.0 0.00 0.00 0.00 78 1016.2
20260509070044 57 0 0.0 0.0 0.00 0.00 0.00 77 1016.2
20260509065532 57 0 0.0 0.0 0.00 0.00 0.00 78 1016.2
20260509065027 57 0 0.0 0.0 0.00 0.00 0.00 77 1016.3
20260509064546 57 0 0.0 0.0 0.00 0.00 0.00 75 1016.2
20260509064028 58 0 0.0 0.0 0.00 0.00 0.00 75 1016.2
20260509063531 58 0 0.0 0.0 0.00 0.00 0.00 74 1016.0
20260509063043 58 0 0.0 0.0 0.00 0.00 0.00 74 1016.1
20260509062527 59 0 0.0 0.0 0.00 0.00 0.00 74 1016.0
20260509062031 59 0 0.0 0.0 0.00 0.00 0.00 73 1016.0
20260509061549 59 0 0.0 0.0 0.00 0.00 0.00 72 1016.0
20260509061027 59 0 0.0 0.0 0.00 0.00 0.00 72 1015.9
20260509060527 59 0 0.0 0.0 0.00 0.00 0.00 71 1015.9
20260509060036 59 0 0.0 0.0 0.00 0.00 0.00 71 1015.9
20260509055527 60 0 0.0 0.0 0.00 0.00 0.00 70 1015.9
20260509055031 60 0 0.0 0.0 0.00 0.00 0.00 69 1015.9
20260509054545 60 0 0.0 0.0 0.00 0.00 0.00 69 1015.9
20260509054028 60 0 0.0 0.0 0.00 0.00 0.00 68 1015.9
20260509053528 60 0 0.0 0.0 0.00 0.00 0.00 68 1015.8
20260509053048 60 0 0.0 0.0 0.00 0.00 0.00 67 1015.8
20260509052528 61 0 0.0 0.0 0.00 0.00 0.00 67 1015.7
20260509052029 61 0 0.0 0.0 0.00 0.00 0.00 64 1015.6
20260509051555 62 0 0.0 0.0 0.00 0.00 0.00 63 1015.7
20260509051027 62 0 0.0 0.0 0.00 0.00 0.00 63 1015.7
20260509050530 62 0 0.0 0.0 0.00 0.00 0.00 62 1015.7
20260509050043 62 0 0.0 0.0 0.00 0.00 0.00 65 1015.6
20260509045530 62 0 0.0 0.0 0.00 0.00 0.00 63 1015.6
20260509045030 62 0 0.0 0.0 0.00 0.00 0.00 64 1015.6
20260509044537 62 0 0.0 0.0 0.00 0.00 0.00 65 1015.6
20260509044029 62 0 0.0 0.0 0.00 0.00 0.00 65 1015.5
20260509043531 63 0 0.0 0.0 0.00 0.00 0.00 67 1015.5
20260509043052 63 0 0.0 0.0 0.00 0.00 0.00 67 1015.4
20260509042529 63 0 0.0 0.0 0.00 0.00 0.00 66 1015.3
20260509042028 63 0 0.0 0.0 0.00 0.00 0.00 69 1015.5
20260509041542 63 0 0.0 0.0 0.00 0.00 0.00 68 1015.4
20260509041029 63 0 0.0 0.0 0.00 0.00 0.00 64 1015.2
20260509040527 63 0 0.0 0.0 0.00 0.00 0.00 64 1015.1
20260509040100 64 0 0.0 0.0 0.00 0.00 0.00 65 1015.1
20260509035529 64 0 0.0 0.0 0.00 0.00 0.00 65 1015.1
20260509035028 65 0 0.0 0.0 0.00 0.00 0.00 65 1015.1
20260509034540 65 0 0.0 0.0 0.00 0.00 0.00 65 1015.0
20260509034027 66 0 0.0 0.0 0.00 0.00 0.00 63 1015.0
20260509033528 67 0 0.0 0.0 0.00 0.00 0.00 61 1014.8
20260509033036 67 0 0.0 0.0 0.00 0.00 0.00 62 1014.7
20260509032525 68 0 0.0 0.0 0.00 0.00 0.00 61 1014.6
20260509032027 69 0 0.0 0.0 0.00 0.00 0.00 60 1014.6
20260509031547 69 0 0.0 0.0 0.00 0.00 0.00 58 1014.5
20260509031028 70 0 0.0 0.0 0.00 0.00 0.00 56 1014.4
20260509030531 71 0 0.0 0.0 0.00 0.00 0.00 56 1014.3
20260509030044 72 0 0.0 0.0 0.00 0.00 0.00 53 1014.3
20260509025528 72 0 0.0 0.0 0.00 0.00 0.00 51 1014.3
20260509025027 72 0 0.0 0.0 0.00 0.00 0.00 50 1014.2
20260509024538 73 0 0.0 0.0 0.00 0.00 0.00 48 1014.2
20260509024027 74 0 0.0 0.0 0.00 0.00 0.00 46 1014.1
20260509023528 74 0 0.0 0.0 0.00 0.00 0.00 46 1014.1
20260509023038 75 0 0.0 0.0 0.00 0.00 0.00 45 1014.0
20260509022527 76 0 0.0 0.0 0.00 0.00 0.00 44 1014.0
20260509022027 77 0 0.0 0.0 0.00 0.00 0.00 43 1013.9
20260509021536 77 0 0.0 0.0 0.00 0.00 0.00 42 1013.9
20260509021027 77 0 0.0 0.0 0.00 0.00 0.00 41 1013.9
20260509020526 78 0 0.0 0.0 0.00 0.00 0.00 40 1013.9
20260509020044 79 0 0.0 0.0 0.00 0.00 0.00 41 1013.8
20260509015531 79 0 0.0 0.0 0.00 0.00 0.00 40 1013.9
20260509015028 80 0 0.0 0.0 0.00 0.00 0.00 39 1013.9
20260509014544 80 0 0.0 1.0 0.00 0.00 0.00 39 1013.8
20260509014028 81 0 0.0 1.0 0.00 0.00 0.00 38 1013.8
20260509013531 82 0 0.0 1.0 0.00 0.00 0.00 37 1013.8
20260509013054 83 0 0.0 1.0 0.00 0.00 0.00 35 1013.7
20260509012527 84 0 0.0 1.0 0.00 0.00 0.00 34 1013.7
20260509012027 85 0 0.0 1.0 0.00 0.00 0.00 33 1013.8
20260509011537 86 228 0.0 1.0 0.00 0.00 0.00 31 1013.8